This is the latest recevied weather packets stored in our database for station/object K4CRS-13. If no packets are shown the sender has not sent any weather packets the latest 10 day(s).
| Time | Temp. | Humidity | Pressure | Rain* | Wind** | Luminosity | Snow |
|---|---|---|---|---|---|---|---|
| 1778116112 | 15° C | 99% | 1046.4 hPa | 0 mm | - | 0 W/m² | - |
| 1778115807 | 15° C | 99% | 1046.5 hPa | 0 mm | - | 0 W/m² | - |
| 1778115505 | 15° C | 99% | 1046.8 hPa | 0 mm | - | 0 W/m² | - |
| 1778115202 | 15° C | 99% | 1046.7 hPa | 0 mm | - | 0 W/m² | - |
| 1778114898 | 15° C | 99% | 1047.4 hPa | 0 mm | - | 0 W/m² | - |
| 1778114596 | 15° C | 99% | 1047.2 hPa | 0 mm | - | 1 W/m² | - |
| 1778114293 | 15° C | 99% | 1047 hPa | 0 mm | - | 1 W/m² | - |
| 1778113988 | 15° C | 99% | 1047.1 hPa | 0 mm | - | 2 W/m² | - |
| 1778113683 | 15° C | 99% | 1047.4 hPa | 0 mm | - | 3 W/m² | - |
| 1778113380 | 15° C | 99% | 1047.5 hPa | 0 mm | - | 5 W/m² | - |
| 1778113077 | 15° C | 99% | 1047.8 hPa | 0 mm | - | 4 W/m² | - |
| 1778112774 | 15° C | 99% | 1047.7 hPa | 0 mm | - | 6 W/m² | - |
| 1778112470 | 15° C | 99% | 1047.3 hPa | 0 mm | - | 24 W/m² | - |
| 1778112166 | 15° C | 99% | 1047.3 hPa | 0 mm | - | 18 W/m² | - |
| 1778111863 | 15° C | 99% | 1047.2 hPa | 0 mm | - | 18 W/m² | - |
| 1778111558 | 15° C | 99% | 1047.6 hPa | 0 mm | - | 17 W/m² | - |
| 1778111256 | 15° C | 99% | 1047.6 hPa | 0 mm | - | 17 W/m² | - |
| 1778110953 | 15° C | 99% | 1047.5 hPa | 0 mm | - | 21 W/m² | - |
| 1778110650 | 15° C | 99% | 1047.3 hPa | 0 mm | - | 37 W/m² | - |
| 1778110347 | 15° C | 99% | 1047.5 hPa | 0 mm | - | 45 W/m² | - |
| 1778110043 | 15° C | 98% | 1047.4 hPa | 0 mm | - | 32 W/m² | - |
| 1778109738 | 14.44° C | 98% | 1046.9 hPa | 0 mm | - | 42 W/m² | - |
| 1778109436 | 15° C | 98% | 1047.1 hPa | 0 mm | - | 57 W/m² | - |
| 1778109134 | 15° C | 98% | 1047.5 hPa | 0 mm | - | 45 W/m² | - |
| 1778108830 | 14.44° C | 98% | 1047.5 hPa | 0 mm | - | 37 W/m² | - |
* Rain latest hour (hover to see other rain measurements)
** Current wind speed in m/s (hover to see current wind gust speed)